Time,TemperatureF,DewpointF,PressureIn,WindDirection,WindDirectionDegrees,WindSpeedMPH,WindSpeedGustMPH,Humidity,HourlyPrecipIn,Conditions,Clouds,dailyrainin,SolarRadiationWatts/m^2,SoftwareType,DateUTC
2013-05-10 00:05:00,48.7,39.0,30.16,East,97,0.0,-999.0,70,-99.99,,,0.00,0,weatherlink.com 1.10,2013-05-10 06:05:00,
2013-05-10 00:20:00,48.4,39.0,30.16,East,97,0.0,-999.0,71,-99.99,,,0.00,0,weatherlink.com 1.10,2013-05-10 06:20:00,
2013-05-10 00:35:00,47.7,39.0,30.16,East,97,0.0,-999.0,72,-99.99,,,0.00,0,weatherlink.com 1.10,2013-05-10 06:35:00,
2013-05-10 00:51:00,47.1,39.0,30.16,East,97,0.0,-999.0,74,-99.99,,,0.00,0,weatherlink.com 1.10,2013-05-10 06:51:00,
2013-05-10 01:05:00,47.4,40.0,30.16,East,97,0.0,-999.0,75,-99.99,,,0.00,0,weatherlink.com 1.10,2013-05-10 07:05:00,
2013-05-10 01:20:00,47.3,40.0,30.16,East,97,0.0,-999.0,75,-99.99,,,0.00,0,weatherlink.com 1.10,2013-05-10 07:20:00,
2013-05-10 01:35:00,47.0,39.0,30.16,East,97,0.0,-999.0,75,-99.99,,,0.00,0,weatherlink.com 1.10,2013-05-10 07:35:00,
2013-05-10 01:50:00,46.3,39.0,30.15,East,97,0.0,-999.0,76,-99.99,,,0.00,0,weatherlink.com 1.10,2013-05-10 07:50:00,
2013-05-10 02:05:00,45.9,39.0,30.15,East,97,0.0,-999.0,78,-99.99,,,0.00,0,weatherlink.com 1.10,2013-05-10 08:05:00,
2013-05-10 02:20:00,45.5,39.0,30.15,East,97,0.0,-999.0,78,-99.99,,,0.00,0,weatherlink.com 1.10,2013-05-10 08:20:00,
2013-05-10 02:35:00,45.0,39.0,30.14,East,97,0.0,-999.0,78,-99.99,,,0.00,0,weatherlink.com 1.10,2013-05-10 08:35:00,
2013-05-10 02:50:00,44.7,39.0,30.14,East,97,0.0,-999.0,79,-99.99,,,0.00,0,weatherlink.com 1.10,2013-05-10 08:50:00,
2013-05-10 03:05:00,44.1,38.0,30.14,East,97,0.0,-999.0,79,-99.99,,,0.00,0,weatherlink.com 1.10,2013-05-10 09:05:00,
2013-05-10 03:20:00,43.7,38.0,30.14,East,97,0.0,-999.0,80,-99.99,,,0.00,0,weatherlink.com 1.10,2013-05-10 09:20:00,
2013-05-10 03:35:00,43.6,38.0,30.15,East,97,0.0,-999.0,80,-99.99,,,0.00,0,weatherlink.com 1.10,2013-05-10 09:35:00,
2013-05-10 03:50:00,43.7,38.0,30.15,East,97,0.0,-999.0,81,-99.99,,,0.00,0,weatherlink.com 1.10,2013-05-10 09:50:00,
2013-05-10 04:05:00,43.6,38.0,30.14,East,97,0.0,-999.0,81,-99.99,,,0.00,0,weatherlink.com 1.10,2013-05-10 10:05:00,
2013-05-10 04:21:00,42.8,37.0,30.14,East,97,0.0,-999.0,81,-99.99,,,0.00,0,weatherlink.com 1.10,2013-05-10 10:21:00,
2013-05-10 04:36:00,42.4,37.0,30.14,East,97,0.0,-999.0,82,-99.99,,,0.00,0,weatherlink.com 1.10,2013-05-10 10:36:00,
2013-05-10 04:51:00,42.1,37.0,30.13,East,96,0.0,-999.0,82,-99.99,,,0.00,0,weatherlink.com 1.10,2013-05-10 10:51:00,
2013-05-10 05:06:00,41.6,37.0,30.13,East,97,0.0,-999.0,82,-99.99,,,0.00,0,weatherlink.com 1.10,2013-05-10 11:06:00,
2013-05-10 05:21:00,41.5,37.0,30.13,East,96,0.0,-999.0,83,-99.99,,,0.00,0,weatherlink.com 1.10,2013-05-10 11:21:00,
2013-05-10 05:36:00,41.9,37.0,30.13,East,96,0.0,-999.0,84,-99.99,,,0.00,0,weatherlink.com 1.10,2013-05-10 11:36:00,
2013-05-10 05:51:00,41.8,37.0,30.13,West,264,0.0,-999.0,84,-99.99,,,0.00,11,weatherlink.com 1.10,2013-05-10 11:51:00,
2013-05-10 06:06:00,42.1,37.0,30.13,West,264,0.0,-999.0,83,-99.99,,,0.00,19,weatherlink.com 1.10,2013-05-10 12:06:00,
2013-05-10 06:21:00,42.7,38.0,30.13,West,264,0.0,-999.0,84,-99.99,,,0.00,30,weatherlink.com 1.10,2013-05-10 12:21:00,
2013-05-10 06:36:00,44.3,39.0,30.13,West,264,0.0,-999.0,83,-99.99,,,0.00,35,weatherlink.com 1.10,2013-05-10 12:36:00,
2013-05-10 06:51:00,46.4,41.0,30.13,West,264,0.0,-999.0,81,-99.99,,,0.00,56,weatherlink.com 1.10,2013-05-10 12:51:00,
2013-05-10 07:06:00,48.4,42.0,30.13,West,264,0.0,-999.0,78,-99.99,,,0.00,165,weatherlink.com 1.10,2013-05-10 13:06:00,
2013-05-10 07:21:00,50.7,42.0,30.13,West,264,0.0,-999.0,73,-99.99,,,0.00,190,weatherlink.com 1.10,2013-05-10 13:21:00,
2013-05-10 07:36:00,53.6,42.0,30.13,West,264,0.0,-999.0,66,-99.99,,,0.00,272,weatherlink.com 1.10,2013-05-10 13:36:00,
2013-05-10 07:51:00,55.9,42.0,30.13,West,272,0.0,-999.0,61,-99.99,,,0.00,262,weatherlink.com 1.10,2013-05-10 13:51:00,
2013-05-10 08:06:00,57.3,43.0,30.12,West,272,0.0,-999.0,59,-99.99,,,0.00,264,weatherlink.com 1.10,2013-05-10 14:06:00,
2013-05-10 08:21:00,59.5,42.0,30.12,West,272,0.0,-999.0,53,-99.99,,,0.00,265,weatherlink.com 1.10,2013-05-10 14:21:00,
2013-05-10 08:36:00,60.9,42.0,30.12,West,272,0.0,-999.0,51,-99.99,,,0.00,441,weatherlink.com 1.10,2013-05-10 14:36:00,
2013-05-10 08:51:00,63.6,43.0,30.12,West,272,0.0,-999.0,47,-99.99,,,0.00,501,weatherlink.com 1.10,2013-05-10 14:51:00,
2013-05-10 09:07:00,65.1,44.0,30.11,West,278,0.0,-999.0,46,-99.99,,,0.00,550,weatherlink.com 1.10,2013-05-10 15:07:00,
2013-05-10 09:22:00,66.3,44.0,30.11,NE,41,0.0,-999.0,44,-99.99,,,0.00,589,weatherlink.com 1.10,2013-05-10 15:22:00,
2013-05-10 09:37:00,67.7,44.0,30.11,NE,44,0.0,-999.0,42,-99.99,,,0.00,552,weatherlink.com 1.10,2013-05-10 15:37:00,
2013-05-10 09:52:00,67.5,43.0,30.11,North,5,3.0,-999.0,41,-99.99,,,0.00,612,weatherlink.com 1.10,2013-05-10 15:52:00,
2013-05-10 10:07:00,68.1,44.0,30.11,NNE,27,3.0,-999.0,42,-99.99,,,0.00,703,weatherlink.com 1.10,2013-05-10 16:07:00,
2013-05-10 10:22:00,69.3,44.0,30.11,NNE,24,0.0,-999.0,40,-99.99,,,0.00,682,weatherlink.com 1.10,2013-05-10 16:22:00,
2013-05-10 10:37:00,69.7,44.0,30.11,NNE,27,2.0,-999.0,39,-99.99,,,0.00,538,weatherlink.com 1.10,2013-05-10 16:37:00,
2013-05-10 10:52:00,69.5,43.0,30.11,NNE,26,5.0,-999.0,39,-99.99,,,0.00,816,weatherlink.com 1.10,2013-05-10 16:52:00,
2013-05-10 11:07:00,70.3,45.0,30.11,NNE,28,8.0,-999.0,40,-99.99,,,0.00,752,weatherlink.com 1.10,2013-05-10 17:07:00,
2013-05-10 11:22:00,71.5,45.0,30.11,NNW,333,6.0,-999.0,39,-99.99,,,0.00,816,weatherlink.com 1.10,2013-05-10 17:22:00,
2013-05-10 11:37:00,71.6,44.0,30.11,North,360,6.0,-999.0,37,-99.99,,,0.00,886,weatherlink.com 1.10,2013-05-10 17:37:00,
2013-05-10 11:52:00,72.9,42.0,30.11,North,9,7.0,-999.0,33,-99.99,,,0.00,923,weatherlink.com 1.10,2013-05-10 17:52:00,
2013-05-10 12:07:00,73.5,42.0,30.10,North,355,5.0,-999.0,32,-99.99,,,0.00,904,weatherlink.com 1.10,2013-05-10 18:07:00,
2013-05-10 12:22:00,74.5,39.0,30.10,NNW,330,5.0,-999.0,28,-99.99,,,0.00,928,weatherlink.com 1.10,2013-05-10 18:22:00,
2013-05-10 12:37:00,74.2,36.0,30.10,NE,34,6.0,-999.0,25,-99.99,,,0.00,925,weatherlink.com 1.10,2013-05-10 18:37:00,
2013-05-10 12:52:00,76.1,36.0,30.09,North,355,11.0,-999.0,23,-99.99,,,0.00,914,weatherlink.com 1.10,2013-05-10 18:52:00,
2013-05-10 13:07:00,75.8,38.0,30.09,NNW,345,3.0,-999.0,26,-99.99,,,0.00,882,weatherlink.com 1.10,2013-05-10 19:07:00,
2013-05-10 13:22:00,75.7,38.0,30.09,North,5,12.0,-999.0,26,-99.99,,,0.00,963,weatherlink.com 1.10,2013-05-10 19:22:00,
2013-05-10 13:37:00,76.4,36.0,30.09,North,360,4.0,-999.0,23,-99.99,,,0.00,932,weatherlink.com 1.10,2013-05-10 19:37:00,
2013-05-10 13:52:00,76.4,37.0,30.09,North,5,8.0,-999.0,24,-99.99,,,0.00,1014,weatherlink.com 1.10,2013-05-10 19:52:00,
2013-05-10 14:08:00,75.8,36.0,30.08,NNW,334,6.0,-999.0,24,-99.99,,,0.00,874,weatherlink.com 1.10,2013-05-10 20:08:00,
2013-05-10 14:22:00,76.5,38.0,30.08,NW,322,6.0,-999.0,25,-99.99,,,0.00,679,weatherlink.com 1.10,2013-05-10 20:22:00,
2013-05-10 14:37:00,76.6,38.0,30.08,NNW,348,3.0,-999.0,25,-99.99,,,0.00,234,weatherlink.com 1.10,2013-05-10 20:37:00,
2013-05-10 14:52:00,75.4,38.0,30.07,North,360,5.0,-999.0,26,-99.99,,,0.00,698,weatherlink.com 1.10,2013-05-10 20:52:00,
2013-05-10 15:08:00,76.4,37.0,30.07,North,350,6.0,-999.0,24,-99.99,,,0.00,258,weatherlink.com 1.10,2013-05-10 21:08:00,
2013-05-10 15:23:00,74.3,37.0,30.07,NNE,15,4.0,-999.0,26,-99.99,,,0.00,123,weatherlink.com 1.10,2013-05-10 21:23:00,
2013-05-10 15:38:00,76.4,37.0,30.06,NNW,327,7.0,-999.0,24,-99.99,,,0.00,527,weatherlink.com 1.10,2013-05-10 21:38:00,
2013-05-10 15:53:00,74.4,36.0,30.07,North,355,7.0,-999.0,25,-99.99,,,0.00,176,weatherlink.com 1.10,2013-05-10 21:53:00,
2013-05-10 16:23:00,67.3,45.0,30.12,North,350,8.0,-999.0,44,-99.99,,,0.00,251,weatherlink.com 1.10,2013-05-10 22:23:00,
2013-05-10 16:38:00,68.4,45.0,30.13,NNW,341,9.0,-999.0,43,-99.99,,,0.00,230,weatherlink.com 1.10,2013-05-10 22:38:00,
2013-05-10 16:53:00,67.4,43.0,30.13,North,10,10.0,-999.0,42,-99.99,,,0.00,120,weatherlink.com 1.10,2013-05-10 22:53:00,
2013-05-10 17:08:00,67.3,43.0,30.14,NNW,335,4.0,-999.0,41,-99.99,,,0.00,181,weatherlink.com 1.10,2013-05-10 23:08:00,
2013-05-10 17:23:00,67.7,43.0,30.14,NNW,344,6.0,-999.0,41,-99.99,,,0.00,174,weatherlink.com 1.10,2013-05-10 23:23:00,
2013-05-10 17:38:00,67.6,43.0,30.14,NNW,330,4.0,-999.0,41,-99.99,,,0.00,97,weatherlink.com 1.10,2013-05-10 23:38:00,
2013-05-10 17:53:00,66.8,40.0,30.14,North,355,4.0,-999.0,38,-99.99,,,0.00,21,weatherlink.com 1.10,2013-05-10 23:53:00,
2013-05-10 18:08:00,66.0,40.0,30.16,NNW,334,4.0,-999.0,38,-99.99,,,0.00,0,weatherlink.com 1.10,2013-05-11 00:08:00,
2013-05-10 18:23:00,59.6,48.0,30.19,WNW,294,5.0,-999.0,65,-99.99,,,0.02,14,weatherlink.com 1.10,2013-05-11 00:23:00,
2013-05-10 18:38:00,57.2,50.0,30.18,West,269,3.0,-999.0,76,-99.99,,,0.04,121,weatherlink.com 1.10,2013-05-11 00:38:00,
2013-05-10 18:53:00,57.1,49.0,30.18,West,261,5.0,-999.0,74,-99.99,,,0.04,74,weatherlink.com 1.10,2013-05-11 00:53:00,
2013-05-10 19:08:00,57.5,49.0,30.18,WNW,291,0.0,-999.0,72,-99.99,,,0.04,54,weatherlink.com 1.10,2013-05-11 01:08:00,
2013-05-10 19:23:00,57.4,48.0,30.18,WNW,288,0.0,-999.0,72,-99.99,,,0.04,44,weatherlink.com 1.10,2013-05-11 01:23:00,
2013-05-10 19:38:00,57.5,49.0,30.18,WNW,289,0.0,-999.0,72,-99.99,,,0.04,23,weatherlink.com 1.10,2013-05-11 01:38:00,
2013-05-10 19:53:00,57.4,47.0,30.20,NNW,347,3.0,-999.0,69,-99.99,,,0.04,9,weatherlink.com 1.10,2013-05-11 01:53:00,
2013-05-10 20:08:00,56.5,43.0,30.21,North,5,5.0,-999.0,61,-99.99,,,0.04,0,weatherlink.com 1.10,2013-05-11 02:08:00,
2013-05-10 20:23:00,55.0,41.0,30.23,North,355,5.0,-999.0,59,-99.99,,,0.04,0,weatherlink.com 1.10,2013-05-11 02:23:00,
2013-05-10 20:38:00,53.7,39.0,30.24,North,360,5.0,-999.0,58,-99.99,,,0.04,0,weatherlink.com 1.10,2013-05-11 02:38:00,
2013-05-10 20:53:00,52.7,38.0,30.25,North,5,2.0,-999.0,58,-99.99,,,0.04,0,weatherlink.com 1.10,2013-05-11 02:53:00,
2013-05-10 21:08:00,51.7,37.0,30.26,NNE,20,4.0,-999.0,57,-99.99,,,0.04,0,weatherlink.com 1.10,2013-05-11 03:08:00,
2013-05-10 21:23:00,51.5,35.0,30.27,North,355,3.0,-999.0,54,-99.99,,,0.04,0,weatherlink.com 1.10,2013-05-11 03:23:00,
2013-05-10 21:38:00,51.2,35.0,30.28,North,355,3.0,-999.0,55,-99.99,,,0.04,0,weatherlink.com 1.10,2013-05-11 03:38:00,
2013-05-10 21:53:00,51.5,33.0,30.29,North,355,4.0,-999.0,50,-99.99,,,0.04,0,weatherlink.com 1.10,2013-05-11 03:53:00,
2013-05-10 22:08:00,51.3,33.0,30.29,North,5,5.0,-999.0,49,-99.99,,,0.04,0,weatherlink.com 1.10,2013-05-11 04:08:00,
2013-05-10 22:23:00,51.3,31.0,30.30,North,5,3.0,-999.0,47,-99.99,,,0.04,0,weatherlink.com 1.10,2013-05-11 04:23:00,
2013-05-10 22:38:00,51.4,31.0,30.31,North,11,3.0,-999.0,45,-99.99,,,0.04,0,weatherlink.com 1.10,2013-05-11 04:38:00,
2013-05-10 22:53:00,50.0,30.0,30.31,North,5,3.0,-999.0,47,-99.99,,,0.04,0,weatherlink.com 1.10,2013-05-11 04:53:00,
2013-05-10 23:08:00,49.2,30.0,30.32,North,11,3.0,-999.0,47,-99.99,,,0.04,0,weatherlink.com 1.10,2013-05-11 05:08:00,
2013-05-10 23:23:00,49.0,29.0,30.32,North,5,2.0,-999.0,46,-99.99,,,0.04,0,weatherlink.com 1.10,2013-05-11 05:23:00,
2013-05-10 23:38:00,47.8,29.0,30.33,North,5,4.0,-999.0,48,-99.99,,,0.04,0,weatherlink.com 1.10,2013-05-11 05:38:00,
2013-05-10 23:53:00,47.4,27.0,30.33,North,5,4.0,-999.0,46,-99.99,,,0.04,0,weatherlink.com 1.10,2013-05-11 05:53:00,